QPF
0.00 0.00 0.00 0.00 0.00 0.00 0.00 0.00 0.00 0.00 0.00 0.00 0.01 0.01 0.01 0.00 0.01 0.01 0.01 0.00 0.00 0.00 0.00 0.00 0.00 0.00 0.00 0.00 0.00 0.00 0.00 0.00 0.00 0.00 0.00 0.00 0.00 0.00 0.00 0.00 0.00 0.00 0.00 0.00 0.00 0.00 0.00 0.00 0.00 0.00 0.00 0.00 0.00 0.00 0.00 0.00 0.00 0.00 0.00 0.00 0.01 0.08 0.23 0.25 0.29 0.33 0.29 0.17 0.12 0.08 0.01 0.00 0.00 0.00
0.00 0.00 0.00 0.00 0.00 0.00 0.00 0.00 0.00 0.00 0.00 0.00 0.00 0.00 0.01 0.01 0.01 0.01 0.01 0.01 0.00 0.00 0.00 0.00 0.00 0.00 0.00 0.00 0.00 0.00 0.00 0.00 0.00 0.00 0.00 0.00 0.00 0.00 0.00 0.00 0.00 0.00 0.00 0.00 0.00 0.00 0.00 0.00 0.00 0.00 0.00 0.00 0.00 0.00 0.00 0.00 0.00 0.00 0.00 0.00 0.00 0.00 0.03 0.13 0.23 0.31 0.30 0.28 0.23 0.14 0.04 0.00 0.00 0.00
0.00 0.00 0.00 0.00 0.00 0.00 0.00 0.00 0.00 0.00 0.00 0.00 0.00 0.00 0.00 0.00 0.00 0.01 0.01 0.01 0.00 0.00 0.00 0.00 0.00 0.00 0.00 0.00 0.00 0.00 0.00 0.00 0.00 0.00 0.00 0.00 0.00 0.00 0.00 0.00 0.00 0.00 0.00 0.00 0.00 0.00 0.00 0.00 0.00 0.00 0.00 0.00 0.01 0.01 0.00 0.00 0.00 0.00 0.00 0.00 0.00 0.00 0.00 0.03 0.09 0.19 0.26 0.26 0.22 0.19 0.13 0.06 0.01 0.00
0.00 0.00 0.00 0.00 0.00 0.00 0.00 0.00 0.00 0.00 0.00 0.01 0.01 0.00 0.00 0.00 0.00 0.00 0.00 0.00 0.00 0.00 0.00 0.00 0.00 0.00 0.00 0.00 0.00 0.00 0.00 0.00 0.00 0.00 0.00 0.00 0.00 0.00 0.00 0.00 0.00 0.00 0.00 0.00 0.00 0.00 0.00 0.00 0.00 0.00 0.00 0.00 0.01 0.01 0.01 0.00 0.00 0.00 0.00 0.00 0.00 0.00 0.00 0.00 0.01 0.06 0.12 0.20 0.21 0.20 0.17 0.11 0.05 0.01
0.00 0.01 0.00 0.00 0.00 0.00 0.00 0.00 0.00 0.00 0.00 0.00 0.01 0.01 0.02 0.02 0.00 0.00 0.00 0.00 0.00 0.00 0.00 0.00 0.00 0.00 0.00 0.00 0.00 0.00 0.00 0.00 0.00 0.00 0.00 0.00 0.00 0.00 0.00 0.00 0.00 0.00 0.00 0.00 0.00 0.00 0.00 0.00 0.00 0.00 0.00 0.00 0.00 0.01 0.01 0.00 0.00 0.00 0.00 0.00 0.00 0.00 0.00 0.01 0.01 0.01 0.09 0.09 0.12 0.18 0.20 0.15 0.09 0.04
0.00 0.00 0.00 0.00 0.00 0.00 0.00 0.00 0.00 0.00 0.00 0.00 0.00 0.01 0.01 0.02 0.03 0.05 0.08 0.01 0.01 0.01 0.00 0.00 0.00 0.00 0.00 0.00 0.00 0.00 0.00 0.00 0.00 0.00 0.00 0.00 0.00 0.00 0.00 0.00 0.00 0.00 0.00 0.00 0.00 0.00 0.00 0.00 0.00 0.00 0.00 0.00 0.00 0.00 0.00 0.01 0.01 0.00 0.00 0.00 0.00 0.00 0.00 0.00 0.01 0.15 0.04 0.06 0.14 0.10 0.17 0.19 0.14 0.08
0.00 0.00 0.00 0.01 0.01 0.01 0.02 0.02 0.02 0.01 0.01 0.01 0.01 0.00 0.00 0.00 0.00 0.01 0.01 0.04 0.04 0.03 0.01 0.00 0.00 0.00 0.00 0.00 0.00 0.00 0.00 0.00 0.00 0.00 0.00 0.00 0.00 0.00 0.00 0.00 0.00 0.00 0.00 0.00 0.00 0.00 0.00 0.00 0.00 0.00 0.00 0.00 0.00 0.00 0.01 0.00 0.00 0.00 0.01 0.00 0.00 0.00 0.00 0.00 0.00 0.01 0.08 0.22 0.11 0.07 0.13 0.15 0.17 0.15
0.00 0.00 0.00 0.00 0.00 0.00 0.00 0.00 0.01 0.01 0.01 0.02 0.01 0.00 0.00 0.00 0.00 0.00 0.00 0.00 0.01 0.01 0.01 0.00 0.00 0.00 0.00 0.00 0.00 0.00 0.00 0.00 0.00 0.00 0.00 0.00 0.00 0.00 0.00 0.00 0.00 0.00 0.00 0.00 0.00 0.00 0.00 0.00 0.00 0.00 0.00 0.00 0.00 0.00 0.00 0.00 0.00 0.00 0.00 0.00 0.00 0.00 0.00 0.00 0.00 0.00 0.00 0.05 0.13 0.12 0.05 0.15 0.11 0.13
0.00 0.00 0.00 0.00 0.00 0.00 0.01 0.01 0.01 0.01 0.01 0.02 0.03 0.03 0.02 0.01 0.00 0.00 0.00 0.00 0.00 0.00 0.00 0.00 0.00 0.00 0.00 0.00 0.00 0.00 0.00 0.00 0.00 0.00 0.00 0.00 0.00 0.00 0.00 0.00 0.00 0.00 0.00 0.00 0.00 0.00 0.00 0.00 0.00 0.00 0.00 0.00 0.00 0.00 0.00 0.00 0.00 0.00 0.00 0.00 0.00 0.00 0.00 0.00 0.00 0.00 0.00 0.00 0.02 0.16 0.22 0.11 0.14 0.12
0.02 0.01 0.00 0.00 0.00 0.00 0.00 0.00 0.00 0.00 0.00 0.00 0.00 0.00 0.01 0.01 0.03 0.02 0.01 0.00 0.00 0.00 0.00 0.00 0.00 0.00 0.00 0.00 0.00 0.00 0.00 0.00 0.00 0.00 0.00 0.00 0.00 0.00 0.00 0.00 0.00 0.00 0.00 0.00 0.00 0.00 0.00 0.00 0.00 0.00 0.00 0.00 0.00 0.00 0.00 0.00 0.00 0.00 0.00 0.00 0.01 0.00 0.00 0.00 0.00 0.00 0.00 0.06 0.02 0.00 0.15 0.33 0.35 0.10
0.00 0.00 0.00 0.00 0.00 0.00 0.00 0.00 0.00 0.00 0.00 0.00 0.00 0.00 0.00 0.00 0.01 0.02 0.03 0.04 0.04 0.04 0.02 0.01 0.00 0.00 0.00 0.00 0.00 0.00 0.00 0.00 0.00 0.00 0.00 0.00 0.00 0.00 0.00 0.00 0.00 0.00 0.00 0.00 0.00 0.00 0.00 0.00 0.00 0.00 0.00 0.00 0.00 0.00 0.00 0.00 0.00 0.00 0.00 0.00 0.00 0.00 0.00 0.00 0.00 0.00 0.00 0.00 0.00 0.03 0.03 0.02 0.11 0.31
0.00 0.00 0.00 0.00 0.00 0.00 0.00 0.00 0.00 0.00 0.00 0.00 0.00 0.00 0.00 0.00 0.00 0.01 0.01 0.02 0.03 0.06 0.06 0.04 0.05 0.00 0.00 0.00 0.00 0.00 0.00 0.00 0.00 0.00 0.00 0.00 0.00 0.00 0.00 0.00 0.00 0.00 0.00 0.00 0.00 0.00 0.00 0.00 0.00 0.00 0.00 0.00 0.00 0.00 0.00 0.01 0.01 0.00 0.00 0.00 0.00 0.00 0.00 0.00 0.00 0.00 0.00 0.00 0.00 0.00 0.02 0.02 0.05 0.08
0.00 0.00 0.00 0.00 0.00 0.00 0.00 0.00 0.00 0.00 0.00 0.00 0.00 0.00 0.00 0.00 0.01 0.01 0.01 0.02 0.02 0.03 0.05 0.05 0.04 0.03 0.04 0.00 0.00 0.00 0.00 0.00 0.00 0.00 0.00 0.00 0.00 0.00 0.00 0.00 0.00 0.00 0.00 0.00 0.00 0.00 0.00 0.00 0.00 0.00 0.00 0.00 0.00 0.00 0.00 0.01 0.02 0.01 0.01 0.00 0.00 0.00 0.00 0.00 0.00 0.00 0.00 0.00 0.01 0.00 0.01 0.03 0.03 0.07
0.00 0.00 0.00 0.00 0.00 0.00 0.00 0.00 0.00 0.00 0.00 0.00 0.00 0.00 0.00 0.00 0.01 0.02 0.03 0.04 0.04 0.04 0.03 0.02 0.02 0.01 0.00 0.00 0.00 0.00 0.00 0.00 0.00 0.00 0.00 0.00 0.00 0.00 0.00 0.00 0.00 0.00 0.00 0.00 0.00 0.00 0.00 0.00 0.00 0.00 0.00 0.00 0.00 0.00 0.00 0.01 0.02 0.02 0.01 0.03 0.03 0.04 0.00 0.00 0.00 0.00 0.00 0.00 0.00 0.00 0.05 0.04 0.04 0.06
0.00 0.00 0.00 0.00 0.00 0.01 0.02 0.02 0.02 0.01 0.00 0.00 0.00 0.00 0.00 0.00 0.01 0.01 0.01 0.01 0.02 0.04 0.05 0.04 0.07 0.11 0.09 0.05 0.01 0.00 0.00 0.00 0.02 0.00 0.00 0.00 0.00 0.00 0.00 0.00 0.00 0.00 0.00 0.00 0.00 0.00 0.00 0.00 0.00 0.00 0.00 0.00 0.00 0.00 0.00 0.00 0.01 0.02 0.01 0.02 0.00 0.03 0.03 0.02 0.00 0.01 0.00 0.00 0.00 0.00 0.00 0.00 0.02 0.00
0.00 0.00 0.00 0.00 0.00 0.00 0.01 0.02 0.03 0.03 0.03 0.02 0.02 0.01 0.00 0.00 0.01 0.02 0.02 0.01 0.01 0.01 0.02 0.02 0.02 0.07 0.14 0.12 0.10 0.15 0.14 0.02 0.03 0.03 0.07 0.01 0.01 0.01 0.01 0.00 0.00 0.00 0.00 0.00 0.00 0.00 0.00 0.00 0.00 0.00 0.00 0.00 0.00 0.00 0.00 0.00 0.00 0.01 0.02 0.02 0.03 0.04 0.05 0.02 0.04 0.01 0.02 0.00 0.00 0.00 0.00 0.00 0.00 0.05
0.00 0.00 0.00 0.01 0.00 0.00 0.01 0.03 0.05 0.06 0.04 0.02 0.01 0.00 0.00 0.00 0.00 0.01 0.02 0.03 0.02 0.01 0.03 0.03 0.02 0.05 0.07 0.12 0.11 0.14 0.15 0.12 0.04 0.02 0.01 0.02 0.02 0.03 0.05 0.01 0.00 0.00 0.00 0.00 0.00 0.00 0.00 0.00 0.00 0.00 0.00 0.00 0.00 0.00 0.02 0.00 0.01 0.00 0.01 0.04 0.04 0.03 0.03 0.04 0.01 0.03 0.01 0.02 0.05 0.00 0.00 0.00 0.00 0.01
0.00 0.00 0.01 0.01 0.01 0.00 0.00 0.01 0.01 0.02 0.03 0.02 0.01 0.01 0.00 0.00 0.00 0.00 0.00 0.01 0.02 0.03 0.02 0.03 0.02 0.03 0.04 0.06 0.08 0.07 0.09 0.10 0.14 0.06 0.02 0.02 0.04 0.04 0.15 0.02 0.01 0.00 0.00 0.00 0.00 0.00 0.00 0.00 0.00 0.00 0.01 0.01 0.01 0.00 0.01 0.00 0.01 0.02 0.02 0.03 0.04 0.05 0.05 0.05 0.02 0.01 0.01 0.01 0.03 0.04 0.01 0.01 0.00 0.00
0.00 0.00 0.00 0.00 0.00 0.00 0.00 0.01 0.01 0.02 0.03 0.07 0.07 0.05 0.04 0.01 0.00 0.00 0.00 0.00 0.00 0.00 0.00 0.00 0.00 0.01 0.01 0.03 0.03 0.04 0.06 0.07 0.08 0.08 0.06 0.02 0.01 0.02 0.03 0.04 0.04 0.04 0.02 0.02 0.02 0.02 0.01 0.01 0.00 0.00 0.00 0.00 0.01 0.02 0.01 0.01 0.01 0.03 0.01 0.03 0.05 0.06 0.06 0.07 0.05 0.03 0.02 0.04 0.03 0.01 0.00 0.00 0.00 0.00
0.00 0.00 0.00 0.00 0.00 0.00 0.00 0.00 0.00 0.01 0.02 0.03 0.04 0.05 0.05 0.03 0.02 0.00 0.00 0.00 0.00 0.00 0.00 0.00 0.00 0.00 0.00 0.01 0.02 0.02 0.02 0.04 0.06 0.09 0.08 0.05 0.05 0.04 0.07 0.04 0.03 0.03 0.03 0.04 0.06 0.04 0.01 0.01 0.01 0.01 0.00 0.00 0.00 0.00 0.02 0.02 0.02 0.02 0.02 0.01 0.03 0.07 0.07 0.07 0.07 0.09 0.08 0.04 0.04 0.03 0.02 0.03 0.03 0.00
0.00 0.00 0.00 0.00 0.00 0.00 0.00 0.00 0.00 0.00 0.00 0.01 0.01 0.01 0.01 0.01 0.02 0.01 0.00 0.00 0.03 0.04 0.01 0.00 0.00 0.00 0.00 0.00 0.00 0.02 0.01 0.02 0.02 0.02 0.04 0.02 0.00 0.01 0.02 0.04 0.06 0.06 0.06 0.08 0.08 0.06 0.04 0.02 0.02 0.03 0.02 0.01 0.01 0.00 0.01 0.02 0.04 0.04 0.04 0.03 0.02 0.03 0.06 0.08 0.08 0.08 0.07 0.06 0.09 0.08 0.05 0.05 0.04 0.03
0.01 0.00 0.00 0.00 0.00 0.00 0.00 0.00 0.00 0.00 0.00 0.00 0.00 0.00 0.00 0.00 0.00 0.00 0.00 0.00 0.00 0.00 0.02 0.03 0.03 0.03 0.02 0.01 0.00 0.01 0.02 0.01 0.01 0.00 0.00 0.00 0.00 0.01 0.01 0.01 0.02 0.03 0.05 0.07 0.09 0.13 0.05 0.05 0.05 0.04 0.03 0.04 0.03 0.02 0.01 0.02 0.03 0.06 0.09 0.07 0.06 0.03 0.03 0.05 0.07 0.08 0.09 0.08 0.07 0.07 0.09 0.10 0.08 0.08
0.01 0.01 0.00 0.00 0.00 0.00 0.00 0.00 0.00 0.00 0.00 0.00 0.00 0.00 0.00 0.00 0.00 0.00 0.00 0.00 0.00 0.00 0.00 0.00 0.00 0.00 0.00 0.00 0.00 0.00 0.00 0.03 0.01 0.00 0.00 0.00 0.00 0.00 0.00 0.01 0.01 0.02 0.02 0.02 0.10 0.10 0.06 0.10 0.09 0.07 0.06 0.05 0.03 0.03 0.03 0.03 0.05 0.05 0.08 0.10 0.11 0.08 0.05 0.04 0.05 0.06 0.08 0.08 0.07 0.07 0.07 0.08 0.09 0.10
0.02 0.02 0.01 0.01 0.01 0.01 0.01 0.01 0.02 0.02 0.04 0.01 0.01 0.00 0.00 0.00 0.00 0.00 0.00 0.00 0.00 0.00 0.00 0.00 0.00 0.00 0.00 0.00 0.00 0.00 0.00 0.00 0.01 0.01 0.02 0.00 0.00 0.00 0.00 0.00 0.01 0.01 0.01 0.01 0.03 0.05 0.05 0.11 0.11 0.13 0.07 0.03 0.05 0.06 0.05 0.04 0.04 0.05 0.06 0.06 0.10 0.09 0.07 0.05 0.05 0.05 0.06 0.07 0.07 0.06 0.06 0.07 0.09 0.09
0.01 0.01 0.01 0.02 0.03 0.04 0.06 0.06 0.07 0.07 0.05 0.04 0.02 0.02 0.01 0.00 0.00 0.00 0.00 0.00 0.00 0.01 0.00 0.00 0.00 0.00 0.00 0.00 0.00 0.00 0.00 0.00 0.00 0.00 0.00 0.00 0.00 0.00 0.00 0.00 0.00 0.01 0.01 0.01 0.01 0.02 0.03 0.06 0.09 0.13 0.12 0.12 0.08 0.05 0.06 0.05 0.04 0.05 0.06 0.06 0.06 0.07 0.09 0.07 0.07 0.04 0.05 0.06 0.07 0.06 0.05 0.05 0.06 0.10
0.00 0.00 0.00 0.00 0.00 0.00 0.00 0.02 0.03 0.04 0.03 0.04 0.04 0.05 0.07 0.03 0.01 0.00 0.00 0.00 0.00 0.00 0.01 0.01 0.01 0.00 0.00 0.01 0.01 0.00 0.00 0.00 0.00 0.00 0.00 0.00 0.00 0.00 0.00 0.00 0.00 0.00 0.00 0.00 0.00 0.01 0.01 0.03 0.05 0.08 0.12 0.12 0.10 0.09 0.08 0.08 0.06 0.07 0.09 0.06 0.07 0.06 0.05 0.06 0.08 0.05 0.05 0.05 0.06 0.07 0.06 0.06 0.05 0.07
0.00 0.00 0.00 0.00 0.00 0.00 0.01 0.01 0.01 0.01 0.02 0.02 0.02 0.05 0.05 0.05 0.05 0.06 0.04 0.02 0.00 0.00 0.00 0.01 0.01 0.01 0.01 0.01 0.02 0.01 0.00 0.00 0.00 0.00 0.00 0.00 0.03 0.15 0.00 0.00 0.00 0.00 0.00 0.00 0.00 0.00 0.01 0.01 0.02 0.03 0.06 0.10 0.11 0.13 0.11 0.08 0.08 0.08 0.08 0.07 0.08 0.07 0.06 0.05 0.06 0.05 0.04 0.03 0.04 0.05 0.06 0.07 0.07 0.05
0.01 0.01 0.01 0.01 0.01 0.01 0.02 0.02 0.02 0.02 0.01 0.01 0.01 0.01 0.01 0.02 0.04 0.05 0.08 0.06 0.03 0.01 0.00 0.00 0.00 0.01 0.01 0.01 0.01 0.01 0.01 0.00 0.00 0.00 0.00 0.00 0.03 0.00 0.00 0.00 0.00 0.00 0.00 0.00 0.00 0.00 0.00 0.00 0.01 0.02 0.03 0.05 0.06 0.08 0.10 0.08 0.06 0.07 0.08 0.06 0.08 0.07 0.06 0.05 0.04 0.04 0.05 0.04 0.04 0.04 0.06 0.08 0.08 0.08
0.01 0.01 0.01 0.02 0.02 0.01 0.01 0.01 0.01 0.01 0.01 0.02 0.02 0.02 0.01 0.01 0.01 0.02 0.04 0.06 0.06 0.04 0.02 0.01 0.00 0.00 0.00 0.01 0.01 0.01 0.06 0.02 0.01 0.02 0.01 0.13 0.04 0.00 0.00 0.00 0.00 0.00 0.00 0.00 0.00 0.00 0.00 0.00 0.00 0.01 0.02 0.02 0.03 0.03 0.04 0.05 0.06 0.05 0.04 0.05 0.05 0.03 0.04 0.04 0.03 0.03 0.03 0.03 0.03 0.02 0.02 0.05 0.08 0.09
0.01 0.01 0.01 0.01 0.01 0.01 0.02 0.02 0.01 0.01 0.01 0.01 0.01 0.01 0.02 0.02 0.01 0.01 0.01 0.03 0.05 0.06 0.03 0.01 0.00 0.00 0.00 0.00 0.01 0.01 0.02 0.03 0.05 0.04 0.03 0.02 0.01 0.02 0.01 0.00 0.00 0.00 0.01 0.02 0.00 0.00 0.00 0.00 0.00 0.00 0.01 0.01 0.01 0.01 0.01 0.02 0.03 0.03 0.03 0.02 0.02 0.02 0.02 0.02 0.02 0.02 0.03 0.01 0.02 0.02 0.01 0.02 0.03 0.06
0.01 0.01 0.01 0.01 0.01 0.01 0.01 0.01 0.01 0.01 0.00 0.00 0.00 0.00 0.01 0.02 0.02 0.02 0.02 0.02 0.02 0.01 0.01 0.01 0.01 0.00 0.00 0.00 0.01 0.01 0.01 0.02 0.03 0.06 0.08 0.05 0.02 0.02 0.01 0.00 0.00 0.00 0.00 0.02 0.03 0.00 0.00 0.00 0.00 0.00 0.00 0.01 0.01 0.01 0.01 0.01 0.01 0.02 0.02 0.02 0.01 0.01 0.01 0.01 0.02 0.01 0.01 0.05 0.02 0.01 0.01 0.01 0.01 0.02
0.01 0.01 0.01 0.00 0.00 0.00 0.01 0.01 0.01 0.01 0.01 0.00 0.00 0.00 0.00 0.01 0.01 0.01 0.00 0.01 0.02 0.02 0.01 0.00 0.01 0.01 0.01 0.01 0.00 0.00 0.00 0.01 0.01 0.02 0.04 0.07 0.04 0.03 0.03 0.02 0.01 0.00 0.00 0.01 0.04 0.01 0.00 0.00 0.00 0.00 0.00 0.00 0.00 0.00 0.00 0.00 0.00 0.01 0.01 0.01 0.01 0.00 0.00 0.00 0.00 0.00 0.00 0.00 0.00 0.00 0.00 0.00 0.00 0.00
0.01 0.01 0.00 0.00 0.00 0.00 0.00 0.00 0.00 0.00 0.00 0.00 0.00 0.00 0.00 0.00 0.00 0.00 0.00 0.00 0.00 0.01 0.03 0.01 0.01 0.01 0.01 0.01 0.00 0.00 0.02 0.01 0.01 0.01 0.01 0.03 0.06 0.07 0.04 0.03 0.01 0.00 0.00 0.00 0.03 0.03 0.00 0.00 0.00 0.00 0.00 0.00 0.00 0.00 0.00 0.00 0.00 0.00 0.00 0.00 0.00 0.00 0.00 0.00 0.00 0.00 0.00 0.00 0.00 0.00 0.00 0.00 0.00 0.00
0.01 0.01 0.00 0.00 0.00 0.00 0.00 0.00 0.00 0.00 0.01 0.01 0.00 0.00 0.00 0.01 0.01 0.03 0.02 0.00 0.00 0.00 0.01 0.01 0.01 0.01 0.01 0.01 0.01 0.00 0.01 0.01 0.01 0.02 0.01 0.03 0.04 0.05 0.06 0.04 0.03 0.02 0.01 0.01 0.01 0.03 0.04 0.01 0.00 0.00 0.00 0.00 0.00 0.00 0.00 0.00 0.00 0.00 0.00 0.00 0.00 0.00 0.00 0.00 0.00 0.00 0.00 0.00 0.00 0.00 0.00 0.00 0.00 0.00
0.00 0.00 0.00 0.00 0.00 0.01 0.01 0.01 0.01 0.01 0.01 0.01 0.00 0.01 0.02 0.02 0.02 0.01 0.01 0.00 0.00 0.00 0.00 0.01 0.00 0.00 0.01 0.01 0.01 0.01 0.00 0.02 0.03 0.02 0.01 0.01 0.04 0.03 0.03 0.02 0.02 0.03 0.03 0.02 0.01 0.02 0.03 0.03 0.01 0.00 0.01 0.01 0.01 0.00 0.00 0.00 0.00 0.00 0.00 0.00 0.00 0.00 0.00 0.00 0.00 0.00 0.00 0.00 0.00 0.00 0.00 0.00 0.00 0.00
0.00 0.00 0.00 0.00 0.00 0.01 0.01 0.01 0.01 0.01 0.01 0.01 0.00 0.01 0.01 0.01 0.02 0.02 0.01 0.00 0.00 0.01 0.02 0.01 0.02 0.01 0.01 0.02 0.02 0.02 0.01 0.01 0.02 0.01 0.01 0.01 0.02 0.02 0.01 0.01 0.01 0.01 0.02 0.02 0.02 0.02 0.03 0.05 0.03 0.01 0.01 0.02 0.02 0.01 0.01 0.00 0.00 0.00 0.00 0.00 0.00 0.00 0.00 0.00 0.00 0.00 0.00 0.00 0.00 0.00 0.00 0.00 0.00 0.00
0.00 0.00 0.00 0.00 0.00 0.01 0.01 0.01 0.01 0.01 0.02 0.01 0.00 0.00 0.00 0.00 0.01 0.03 0.01 0.01 0.01 0.01 0.02 0.02 0.02 0.03 0.02 0.02 0.02 0.03 0.04 0.02 0.01 0.00 0.01 0.01 0.01 0.01 0.01 0.02 0.01 0.00 0.01 0.02 0.05 0.03 0.04 0.04 0.04 0.03 0.03 0.03 0.02 0.01 0.00 0.00 0.00 0.00 0.00 0.00 0.00 0.00 0.00 0.00 0.00 0.00 0.00 0.00 0.00 0.00 0.00 0.00 0.00 0.00
0.00 0.00 0.00 0.01 0.00 0.01 0.01 0.01 0.01 0.01 0.01 0.01 0.01 0.00 0.00 0.00 0.00 0.00 0.02 0.06 0.07 0.06 0.03 0.02 0.01 0.02 0.04 0.03 0.03 0.03 0.04 0.04 0.04 0.02 0.01 0.01 0.00 0.00 0.01 0.02 0.01 0.01 0.00 0.01 0.04 0.03 0.03 0.02 0.03 0.02 0.02 0.02 0.01 0.01 0.01 0.00 0.00 0.00 0.00 0.00 0.00 0.00 0.00 0.00 0.00 0.00 0.00 0.00 0.00 0.00 0.00 0.00 0.00 0.00
0.00 0.00 0.00 0.01 0.01 0.01 0.01 0.01 0.01 0.01 0.01 0.01 0.01 0.01 0.01 0.01 0.01 0.00 0.01 0.02 0.03 0.03 0.03 0.03 0.02 0.03 0.05 0.04 0.02 0.02 0.02 0.03 0.02 0.01 0.00 0.00 0.00 0.01 0.02 0.02 0.01 0.01 0.00 0.01 0.02 0.02 0.02 0.01 0.01 0.01 0.01 0.00 0.00 0.00 0.00 0.00 0.00 0.00 0.00 0.00 0.00 0.00 0.00 0.00 0.00 0.00 0.00 0.00 0.00 0.00 0.00 0.00 0.00 0.00
0.00 0.00 0.00 0.00 0.00 0.01 0.01 0.01 0.01 0.01 0.01 0.01 0.01 0.00 0.00 0.01 0.01 0.01 0.01 0.01 0.01 0.01 0.01 0.01 0.02 0.02 0.03 0.03 0.02 0.02 0.02 0.02 0.01 0.00 0.00 0.00 0.00 0.01 0.01 0.01 0.01 0.01 0.01 0.01 0.01 0.01 0.01 0.01 0.01 0.01 0.00 0.00 0.00 0.00 0.00 0.00 0.00 0.00 0.00 0.00 0.00 0.00 0.00 0.00 0.00 0.00 0.00 0.00 0.00 0.00 0.00 0.00 0.00 0.00
0.00 0.00 0.00 0.00 0.00 0.00 0.01 0.01 0.01 0.01 0.01 0.00 0.01 0.01 0.01 0.00 0.01 0.01 0.02 0.02 0.02 0.01 0.01 0.01 0.01 0.02 0.02 0.02 0.02 0.01 0.01 0.02 0.01 0.00 0.00 0.01 0.01 0.00 0.00 0.01 0.01 0.01 0.01 0.01 0.01 0.00 0.00 0.00 0.00 0.00 0.00 0.00 0.00 0.00 0.00 0.00 0.00 0.00 0.00 0.00 0.00 0.00 0.00 0.00 0.00 0.00 0.00 0.00 0.00 0.00 0.00 0.00 0.00 0.00
0.00 0.00 0.00 0.00 0.00 0.00 0.00 0.00 0.00 0.01 0.01 0.01 0.01 0.01 0.01 0.01 0.00 0.00 0.01 0.01 0.02 0.02 0.01 0.01 0.01 0.01 0.01 0.01 0.02 0.01 0.01 0.01 0.01 0.01 0.01 0.01 0.02 0.02 0.01 0.01 0.01 0.01 0.01 0.01 0.01 0.00 0.01 0.01 0.00 0.00 0.00 0.00 0.00 0.00 0.00 0.00 0.00 0.00 0.00 0.00 0.00 0.00 0.00 0.00 0.00 0.00 0.00 0.00 0.00 0.00 0.00 0.00 0.00 0.00
0.00 0.00 0.00 0.00 0.00 0.01 0.00 0.00 0.00 0.00 0.00 0.01 0.01 0.01 0.01 0.01 0.01 0.00 0.01 0.01 0.01 0.01 0.01 0.01 0.01 0.00 0.01 0.01 0.01 0.01 0.01 0.01 0.01 0.01 0.01 0.01 0.01 0.02 0.02 0.01 0.01 0.00 0.00 0.00 0.00 0.01 0.00 0.00 0.00 0.00 0.00 0.00 0.00 0.00 0.00 0.00 0.00 0.00 0.00 0.00 0.00 0.00 0.00 0.00 0.00 0.00 0.00 0.00 0.00 0.00 0.00 0.00 0.00 0.00
0.00 0.00 0.00 0.00 0.00 0.00 0.00 0.00 0.00 0.00 0.00 0.00 0.00 0.01 0.01 0.01 0.01 0.00 0.00 0.01 0.01 0.00 0.00 0.00 0.00 0.00 0.00 0.00 0.00 0.01 0.01 0.01 0.01 0.01 0.01 0.01 0.01 0.01 0.01 0.01 0.01 0.00 0.00 0.00 0.00 0.00 0.00 0.00 0.00 0.00 0.00 0.00 0.00 0.00 0.00 0.00 0.00 0.00 0.00 0.00 0.00 0.00 0.00 0.00 0.00 0.00 0.00 0.00 0.00 0.00 0.00 0.00 0.00 0.00
0.00 0.00 0.00 0.00 0.00 0.00 0.00 0.00 0.00 0.00 0.00 0.00 0.00 0.00 0.00 0.00 0.00 0.00 0.00 0.00 0.00 0.00 0.00 0.00 0.00 0.00 0.00 0.00 0.00 0.00 0.00 0.00 0.00 0.00 0.00 0.00 0.00 0.00 0.00 0.00 0.00 0.00 0.00 0.00 0.00 0.00 0.00 0.00 0.00 0.00 0.00 0.00 0.00 0.00 0.00 0.00 0.00 0.00 0.00 0.00 0.00 0.00 0.00 0.00 0.00 0.00 0.00 0.00 0.00 0.00 0.00 0.00 0.00 0.00
MSLP
1024.90 1024.94 1024.98 1024.94 1024.66 1024.58 1024.66 1024.62 1024.62 1024.66 1024.66 1024.66 1024.70 1024.70 1024.70 1024.74 1024.50 1024.10 1023.46 1022.30 1021.82 1020.94 1021.14 1020.78 1019.86 1019.98 1019.78 1019.78 1019.70 1019.62 1019.50 1019.38 1019.30 1019.22 1018.98 1018.74 1018.50 1018.26 1018.02 1017.86 1017.78 1017.66 1017.54 1017.54 1017.58 1017.66 1017.78 1017.86 1017.94 1017.98 1017.86 1017.78 1017.70 1017.74 1017.82 1017.98 1018.14 1018.22 1018.30 1018.30 1018.34 1018.42 1018.58 1018.74 1018.94 1019.30 1019.82 1020.10 1020.26 1020.26 1020.38 1020.66 1021.10 1021.38
1024.86 1024.70 1024.58 1024.58 1024.46 1024.38 1024.38 1024.38 1024.30 1024.26 1024.34 1024.34 1024.30 1024.30 1024.18 1024.18 1024.42 1024.18 1023.86 1022.62 1021.90 1021.18 1020.90 1020.82 1020.38 1020.06 1019.90 1019.70 1019.50 1019.54 1019.34 1019.22 1019.18 1019.14 1019.06 1018.86 1018.66 1018.46 1018.26 1017.98 1017.70 1017.54 1017.46 1017.42 1017.42 1017.46 1017.54 1017.62 1017.70 1017.78 1017.82 1017.74 1017.66 1017.54 1017.54 1017.66 1017.82 1018.02 1018.06 1018.10 1018.14 1018.18 1018.34 1018.54 1018.74 1018.98 1019.26 1019.66 1020.02 1020.54 1020.82 1020.66 1020.86 1021.14
1024.70 1024.54 1024.42 1024.22 1024.14 1024.10 1024.18 1024.10 1024.10 1024.06 1024.06 1024.02 1023.98 1023.86 1023.86 1023.78 1023.82 1023.66 1023.50 1023.06 1021.34 1021.78 1021.06 1020.78 1020.46 1020.26 1020.06 1019.74 1019.58 1019.34 1019.18 1019.02 1018.98 1018.94 1018.86 1018.78 1018.62 1018.46 1018.30 1018.10 1017.90 1017.58 1017.30 1017.22 1017.26 1017.26 1017.34 1017.38 1017.46 1017.54 1017.58 1017.62 1017.58 1017.54 1017.34 1017.34 1017.42 1017.58 1017.78 1017.86 1017.90 1017.98 1018.06 1018.22 1018.38 1018.62 1018.82 1019.14 1019.62 1020.02 1020.34 1020.54 1020.58 1020.86
1024.46 1024.34 1024.34 1024.26 1024.10 1023.98 1023.90 1023.82 1023.82 1023.82 1023.74 1023.74 1023.66 1023.62 1023.62 1023.54 1023.46 1023.42 1023.30 1022.94 1021.70 1021.54 1021.42 1020.90 1020.54 1020.34 1020.06 1019.78 1019.50 1019.22 1018.94 1018.70 1018.66 1018.70 1018.62 1018.50 1018.38 1018.22 1018.10 1017.90 1017.74 1017.62 1017.50 1017.30 1017.14 1017.10 1017.06 1017.06 1017.10 1017.14 1017.22 1017.30 1017.38 1017.42 1017.34 1017.18 1017.14 1017.22 1017.30 1017.42 1017.58 1017.70 1017.74 1017.78 1017.94 1018.14 1018.42 1018.66 1018.98 1019.50 1019.86 1020.14 1020.54 1020.58
1024.42 1024.18 1024.06 1023.94 1023.90 1023.90 1023.86 1023.70 1023.66 1023.58 1023.50 1023.46 1023.38 1023.34 1023.34 1023.26 1023.06 1022.94 1022.90 1022.70 1021.90 1021.02 1021.18 1020.78 1020.38 1020.10 1020.18 1019.70 1019.50 1019.14 1018.86 1018.62 1018.42 1018.34 1018.30 1018.22 1018.10 1017.94 1017.78 1017.62 1017.50 1017.38 1017.34 1017.30 1017.18 1017.06 1016.90 1016.86 1016.86 1016.90 1016.94 1016.98 1017.02 1017.10 1017.14 1017.14 1017.02 1016.86 1016.94 1017.06 1017.18 1017.34 1017.46 1017.46 1017.54 1017.74 1017.98 1018.34 1018.50 1018.70 1019.18 1019.66 1019.94 1020.34
1024.22 1024.10 1023.86 1023.70 1023.62 1023.54 1023.50 1023.46 1023.46 1023.38 1023.30 1023.26 1023.22 1023.06 1022.98 1022.90 1022.66 1022.58 1022.50 1022.06 1021.58 1020.90 1020.62 1020.10 1019.90 1019.78 1019.82 1019.66 1019.42 1019.26 1018.94 1018.46 1018.38 1018.18 1018.02 1017.82 1017.74 1017.50 1017.30 1017.14 1017.02 1017.06 1017.06 1017.02 1016.98 1016.94 1016.82 1016.66 1016.58 1016.58 1016.62 1016.70 1016.74 1016.74 1016.78 1016.86 1016.86 1016.78 1016.74 1016.78 1016.86 1016.98 1017.10 1017.18 1017.18 1017.30 1017.58 1017.86 1018.30 1018.34 1018.34 1018.86 1019.42 1019.82
1023.86 1023.78 1023.66 1023.50 1023.38 1023.26 1023.18 1023.14 1023.10 1023.06 1022.94 1022.82 1022.74 1022.66 1022.62 1022.54 1022.38 1022.14 1021.98 1021.86 1021.42 1021.10 1020.54 1020.22 1019.66 1019.58 1019.46 1019.46 1019.10 1018.98 1018.82 1018.54 1018.26 1018.02 1017.74 1017.62 1017.38 1017.18 1017.02 1016.86 1016.74 1016.66 1016.66 1016.66 1016.62 1016.58 1016.58 1016.54 1016.38 1016.34 1016.38 1016.38 1016.42 1016.42 1016.34 1016.34 1016.54 1016.66 1016.70 1016.58 1016.58 1016.66 1016.78 1016.86 1016.90 1016.94 1017.10 1017.34 1017.62 1017.94 1018.14 1018.34 1018.82 1019.30
1023.42 1023.34 1023.30 1023.14 1023.10 1022.98 1022.86 1022.70 1022.62 1022.50 1022.46 1022.42 1022.34 1022.22 1022.14 1022.14 1021.94 1021.82 1021.66 1021.42 1021.22 1020.74 1020.46 1019.94 1020.02 1019.50 1019.50 1019.10 1018.90 1018.58 1018.54 1018.30 1018.10 1017.82 1017.46 1017.18 1017.06 1016.86 1016.70 1016.62 1016.54 1016.42 1016.34 1016.26 1016.18 1016.14 1016.18 1016.26 1016.26 1016.18 1016.18 1016.18 1016.18 1016.18 1016.22 1016.14 1016.10 1016.26 1016.38 1016.42 1016.38 1016.38 1016.50 1016.54 1016.62 1016.62 1016.70 1016.86 1017.14 1017.50 1017.78 1017.98 1018.22 1018.58
1022.66 1022.66 1022.62 1022.58 1022.54 1022.46 1022.38 1022.30 1022.26 1022.18 1022.14 1022.02 1021.94 1021.82 1021.62 1021.50 1021.38 1021.30 1021.22 1021.02 1020.78 1020.62 1020.26 1019.74 1019.22 1019.34 1019.18 1019.02 1018.46 1018.26 1018.22 1017.86 1017.62 1017.42 1017.18 1016.90 1016.58 1016.38 1016.14 1016.10 1015.98 1015.94 1015.94 1015.86 1015.78 1015.78 1015.82 1015.86 1015.90 1015.90 1015.90 1015.94 1015.94 1015.98 1015.94 1015.94 1015.90 1015.86 1015.98 1016.18 1016.26 1016.18 1016.18 1016.26 1016.34 1016.38 1016.38 1016.50 1016.74 1016.98 1017.26 1017.54 1017.86 1018.18
1022.02 1021.94 1021.90 1021.90 1021.94 1021.98 1022.06 1022.06 1022.02 1021.98 1021.86 1021.78 1021.62 1021.50 1021.34 1021.18 1021.02 1020.90 1020.70 1020.46 1020.30 1020.18 1019.82 1019.46 1018.94 1018.82 1018.94 1018.62 1018.22 1017.74 1017.70 1017.62 1017.22 1016.98 1016.74 1016.50 1016.26 1016.10 1015.86 1015.70 1015.74 1015.66 1015.70 1015.66 1015.58 1015.54 1015.50 1015.50 1015.54 1015.54 1015.58 1015.58 1015.62 1015.70 1015.70 1015.70 1015.66 1015.62 1015.58 1015.74 1015.90 1015.98 1015.90 1015.94 1016.06 1016.10 1016.14 1016.18 1016.34 1016.62 1016.74 1017.02 1017.34 1017.74
1022.02 1021.90 1021.82 1021.82 1021.82 1021.82 1021.82 1021.82 1021.78 1021.70 1021.66 1021.58 1021.46 1021.34 1021.14 1020.94 1020.82 1020.58 1020.30 1020.06 1019.86 1019.58 1019.22 1018.70 1018.42 1018.10 1017.86 1018.02 1017.74 1017.06 1016.98 1017.02 1016.94 1016.74 1016.46 1016.06 1015.70 1015.58 1015.54 1015.26 1015.18 1015.26 1015.30 1015.30 1015.26 1015.26 1015.30 1015.30 1015.26 1015.26 1015.26 1015.26 1015.26 1015.30 1015.38 1015.42 1015.46 1015.42 1015.34 1015.26 1015.34 1015.54 1015.62 1015.62 1015.74 1015.86 1015.90 1015.90 1015.98 1016.18 1016.46 1016.70 1017.10 1017.38
1021.70 1021.54 1021.46 1021.42 1021.34 1021.34 1021.34 1021.38 1021.34 1021.34 1021.30 1021.18 1021.10 1020.82 1020.78 1020.62 1020.50 1020.30 1019.98 1019.74 1019.54 1019.22 1018.74 1018.30 1017.82 1017.50 1017.26 1017.06 1016.98 1016.46 1016.46 1016.70 1016.54 1016.38 1016.22 1015.82 1015.30 1015.02 1014.98 1014.86 1014.74 1014.74 1014.98 1015.06 1015.06 1015.02 1015.02 1015.06 1015.10 1015.06 1015.02 1014.98 1014.98 1014.98 1015.02 1015.06 1015.14 1015.14 1015.06 1014.98 1014.90 1014.98 1015.14 1015.26 1015.34 1015.50 1015.66 1015.74 1015.70 1015.82 1016.14 1016.46 1016.74 1017.06
1021.14 1021.02 1020.90 1020.82 1020.74 1020.70 1020.66 1020.66 1020.58 1020.54 1020.58 1020.66 1020.58 1020.22 1020.22 1020.14 1020.02 1019.78 1019.46 1019.14 1018.82 1018.42 1018.06 1017.58 1017.14 1016.94 1016.54 1016.18 1016.18 1016.18 1016.14 1016.14 1015.74 1015.06 1015.18 1015.18 1014.86 1014.62 1014.62 1014.54 1014.54 1014.50 1014.58 1014.74 1014.78 1014.86 1014.86 1014.94 1014.90 1014.94 1014.90 1014.82 1014.78 1014.70 1014.66 1014.66 1014.66 1014.70 1014.66 1014.62 1014.58 1014.54 1014.66 1014.78 1014.90 1015.06 1015.30 1015.54 1015.62 1015.62 1015.78 1016.14 1016.42 1016.66
1020.62 1020.50 1020.34 1020.22 1020.18 1020.18 1020.06 1019.94 1019.82 1019.70 1019.58 1019.54 1019.50 1019.26 1019.26 1019.22 1019.14 1018.94 1018.70 1018.34 1017.98 1017.70 1017.30 1016.90 1016.58 1016.38 1015.98 1015.66 1015.66 1015.70 1015.30 1015.02 1014.86 1014.86 1014.98 1015.02 1014.42 1014.34 1014.34 1014.30 1014.06 1014.26 1014.38 1014.46 1014.54 1014.50 1014.54 1014.70 1014.74 1014.74 1014.70 1014.54 1014.58 1014.50 1014.46 1014.30 1014.26 1014.22 1014.26 1014.22 1014.18 1014.18 1014.22 1014.38 1014.46 1014.58 1014.86 1015.10 1015.34 1015.46 1015.54 1015.74 1016.02 1016.34
1020.02 1019.86 1019.78 1019.66 1019.54 1019.46 1019.34 1019.22 1019.10 1018.94 1018.70 1018.58 1018.42 1018.18 1017.98 1017.98 1018.02 1017.98 1017.82 1017.54 1017.22 1017.06 1016.66 1016.18 1015.90 1015.62 1015.30 1015.10 1015.10 1015.02 1014.70 1014.46 1014.30 1014.10 1014.14 1014.22 1014.14 1014.22 1014.42 1014.06 1013.62 1013.66 1013.94 1014.18 1014.22 1014.06 1014.06 1014.34 1014.42 1014.30 1014.26 1014.22 1014.26 1014.26 1014.06 1014.02 1013.94 1013.90 1013.86 1013.86 1013.78 1013.78 1013.86 1014.02 1014.18 1014.26 1014.42 1014.62 1014.86 1015.14 1015.26 1015.46 1015.86 1016.10
1019.34 1019.26 1019.18 1019.02 1018.86 1018.70 1018.58 1018.54 1018.38 1018.14 1017.94 1017.70 1017.46 1017.26 1017.06 1016.90 1016.82 1016.82 1016.86 1016.82 1016.66 1016.38 1016.14 1015.78 1015.46 1015.30 1014.98 1014.78 1014.74 1014.54 1014.54 1014.18 1013.82 1013.62 1013.74 1013.82 1013.86 1013.90 1013.82 1013.58 1013.30 1013.14 1013.30 1013.74 1013.82 1013.78 1013.66 1013.86 1014.02 1013.86 1013.74 1013.78 1013.78 1013.74 1013.62 1013.50 1013.50 1013.54 1013.58 1013.54 1013.42 1013.34 1013.42 1013.58 1013.74 1013.90 1014.06 1014.30 1014.46 1014.70 1014.94 1015.10 1015.42 1015.82
1018.58 1018.50 1018.42 1018.22 1017.98 1017.78 1017.78 1017.74 1017.58 1017.42 1017.14 1016.86 1016.62 1016.46 1016.26 1016.02 1015.86 1015.78 1015.70 1015.70 1015.70 1015.62 1015.58 1015.26 1014.90 1014.74 1014.62 1014.54 1014.18 1014.10 1014.22 1014.06 1013.86 1013.58 1013.50 1013.42 1013.34 1013.34 1013.30 1012.98 1012.86 1012.98 1013.22 1013.58 1013.58 1013.50 1013.14 1013.42 1013.50 1013.46 1013.22 1013.34 1013.42 1013.46 1013.34 1013.18 1013.18 1013.22 1013.30 1013.34 1013.22 1013.02 1012.98 1013.14 1013.38 1013.58 1013.78 1014.06 1014.30 1014.42 1014.58 1014.78 1014.98 1015.22
1017.78 1017.74 1017.66 1017.46 1017.14 1016.98 1017.06 1016.94 1016.82 1016.58 1016.30 1016.06 1015.86 1015.62 1015.50 1015.22 1014.86 1014.70 1014.70 1014.78 1014.86 1014.86 1014.82 1014.70 1014.46 1014.06 1014.26 1014.14 1013.74 1013.66 1013.74 1013.82 1013.62 1013.34 1013.18 1013.06 1013.26 1013.26 1013.06 1012.94 1012.94 1013.02 1013.02 1013.26 1013.38 1013.10 1012.86 1012.90 1013.26 1012.98 1012.86 1012.90 1013.06 1013.06 1013.02 1012.94 1012.78 1012.86 1013.02 1013.06 1013.10 1012.94 1012.74 1012.86 1013.02 1013.22 1013.46 1013.70 1013.98 1014.26 1014.42 1014.62 1014.82 1014.94
1016.90 1016.82 1016.78 1016.62 1016.42 1016.30 1016.26 1016.10 1016.10 1016.06 1015.90 1015.74 1015.38 1015.06 1014.66 1014.26 1013.94 1013.94 1014.02 1014.14 1014.22 1014.18 1014.10 1013.94 1013.74 1013.66 1013.78 1013.70 1013.54 1013.50 1013.42 1013.38 1013.10 1012.86 1012.74 1012.70 1012.74 1012.74 1012.90 1012.98 1013.06 1013.06 1012.98 1012.98 1013.10 1012.98 1012.46 1012.46 1012.78 1012.66 1012.58 1012.62 1012.74 1012.74 1012.66 1012.62 1012.50 1012.50 1012.66 1012.78 1012.82 1012.86 1012.74 1012.74 1012.98 1013.10 1013.26 1013.50 1013.78 1014.06 1014.30 1014.42 1014.70 1014.98
1016.26 1016.26 1016.26 1016.22 1016.06 1015.90 1015.70 1015.42 1015.54 1015.38 1015.18 1014.98 1014.74 1014.50 1014.02 1013.66 1013.46 1013.42 1013.30 1013.34 1013.42 1013.46 1013.46 1013.38 1013.26 1013.26 1013.30 1013.22 1013.26 1013.26 1013.22 1013.10 1012.82 1012.74 1012.74 1012.74 1012.78 1012.86 1012.98 1012.94 1012.74 1012.90 1012.78 1012.82 1012.86 1012.78 1012.38 1012.46 1012.50 1012.46 1012.34 1012.50 1012.54 1012.50 1012.50 1012.34 1012.18 1012.14 1012.26 1012.46 1012.46 1012.50 1012.58 1012.58 1012.74 1013.06 1013.34 1013.54 1013.70 1013.94 1014.22 1014.42 1014.62 1014.94
1015.70 1015.66 1015.58 1015.54 1015.42 1015.26 1015.02 1014.70 1014.66 1014.54 1014.54 1014.42 1014.18 1013.94 1013.58 1013.26 1013.14 1012.98 1012.82 1012.70 1012.62 1012.62 1012.62 1012.58 1012.62 1012.70 1012.74 1012.74 1012.66 1012.70 1012.62 1012.58 1012.54 1012.62 1012.66 1012.58 1012.54 1012.70 1012.82 1012.74 1012.74 1012.54 1012.42 1012.54 1012.62 1012.66 1012.50 1012.34 1012.46 1012.50 1012.38 1012.38 1012.38 1012.30 1012.26 1012.18 1011.94 1011.86 1011.90 1012.06 1012.10 1012.18 1012.30 1012.38 1012.58 1012.82 1013.14 1013.46 1013.74 1013.98 1014.18 1014.42 1014.70 1015.02
1015.18 1015.06 1014.94 1014.90 1014.86 1014.74 1014.46 1014.18 1013.90 1013.74 1013.82 1013.82 1013.58 1013.38 1013.18 1013.02 1012.90 1012.70 1012.54 1012.54 1012.42 1012.22 1012.10 1012.10 1012.02 1012.02 1012.02 1012.06 1012.06 1012.06 1012.02 1012.02 1012.26 1012.34 1012.38 1011.98 1012.18 1012.38 1012.46 1012.50 1012.38 1012.26 1012.34 1012.38 1012.46 1012.74 1012.34 1012.18 1012.34 1012.42 1012.38 1012.30 1012.26 1012.14 1012.06 1012.02 1011.94 1011.86 1011.82 1011.78 1011.86 1011.90 1012.02 1012.26 1012.46 1012.70 1012.94 1013.26 1013.62 1013.90 1014.18 1014.50 1014.78 1015.10
1014.54 1014.46 1014.34 1014.26 1014.14 1013.98 1013.74 1013.46 1013.22 1013.06 1013.10 1013.14 1012.94 1012.74 1012.66 1012.58 1012.50 1012.22 1012.26 1012.38 1012.34 1012.22 1012.18 1011.98 1011.86 1011.78 1011.70 1011.74 1011.74 1011.74 1011.74 1011.70 1011.86 1011.90 1011.78 1011.86 1012.14 1012.22 1012.30 1012.30 1012.22 1012.38 1012.22 1011.98 1012.14 1012.42 1012.10 1012.14 1012.30 1012.18 1012.34 1012.50 1012.14 1011.98 1011.98 1011.90 1011.86 1011.90 1011.94 1011.94 1011.86 1011.86 1012.02 1012.18 1012.38 1012.62 1012.90 1013.22 1013.50 1013.78 1014.02 1014.34 1014.74 1015.10
1013.94 1013.86 1013.70 1013.54 1013.38 1013.14 1012.90 1012.66 1012.50 1012.38 1012.26 1012.26 1012.18 1012.10 1012.06 1012.10 1011.90 1011.66 1011.86 1011.90 1011.98 1011.90 1011.86 1011.74 1011.70 1011.62 1011.58 1011.58 1011.58 1011.58 1011.58 1011.58 1011.58 1011.66 1011.70 1011.70 1011.74 1011.94 1012.06 1012.10 1012.06 1012.02 1011.58 1011.66 1011.86 1012.06 1011.90 1011.86 1012.10 1011.98 1012.10 1012.02 1011.98 1012.02 1011.98 1011.94 1011.86 1011.82 1011.82 1011.94 1012.06 1012.06 1012.18 1012.38 1012.58 1012.74 1013.02 1013.22 1013.46 1013.74 1013.94 1014.14 1014.46 1014.90
1013.54 1013.34 1013.14 1012.98 1012.86 1012.62 1012.34 1012.06 1011.78 1011.58 1011.38 1011.30 1011.38 1011.42 1011.42 1011.26 1011.02 1011.14 1011.38 1011.34 1011.38 1011.42 1011.42 1011.42 1011.46 1011.42 1011.42 1011.42 1011.42 1011.46 1011.46 1011.46 1011.42 1011.38 1011.50 1011.58 1011.46 1011.58 1011.78 1011.82 1011.90 1011.78 1011.38 1011.38 1011.50 1011.74 1011.74 1011.70 1011.90 1011.94 1012.10 1012.14 1012.06 1011.94 1012.02 1012.06 1011.98 1011.86 1011.86 1011.86 1011.98 1012.14 1012.26 1012.50 1012.70 1012.90 1013.02 1013.18 1013.38 1013.66 1013.86 1014.10 1014.34 1014.70
1013.58 1013.18 1012.86 1012.66 1012.38 1012.14 1011.86 1011.62 1011.34 1011.06 1010.86 1010.74 1010.78 1010.78 1010.66 1010.58 1010.54 1010.54 1010.66 1010.90 1011.02 1011.02 1011.02 1011.06 1011.14 1011.10 1011.06 1011.10 1011.18 1011.18 1011.22 1011.18 1011.22 1011.18 1011.22 1011.30 1011.34 1011.30 1011.22 1011.26 1011.46 1011.58 1011.22 1011.06 1011.26 1011.46 1011.46 1011.66 1011.66 1011.78 1012.02 1012.14 1012.22 1012.14 1012.02 1012.14 1012.22 1012.02 1011.94 1011.94 1012.02 1012.18 1012.30 1012.62 1012.86 1013.10 1013.30 1013.38 1013.50 1013.70 1013.94 1014.02 1014.26 1014.46
1013.50 1013.14 1012.78 1012.34 1011.98 1011.70 1011.38 1011.10 1010.86 1010.62 1010.42 1010.34 1010.30 1010.26 1010.18 1010.14 1010.18 1010.26 1010.34 1010.50 1010.70 1010.78 1010.74 1010.74 1010.74 1010.66 1010.70 1010.70 1010.70 1010.70 1010.78 1010.74 1010.78 1010.86 1010.90 1010.94 1010.98 1011.02 1011.14 1011.14 1011.10 1010.98 1010.98 1011.18 1011.10 1011.22 1011.30 1011.34 1011.42 1011.46 1011.70 1011.98 1012.14 1012.42 1012.30 1012.06 1012.06 1012.22 1012.18 1012.22 1012.22 1012.34 1012.46 1012.62 1012.98 1013.26 1013.50 1013.70 1013.82 1013.98 1014.18 1014.30 1014.38 1014.42
1013.22 1012.86 1012.54 1012.14 1011.70 1011.34 1011.06 1010.82 1010.58 1010.34 1010.22 1010.10 1009.98 1009.90 1009.82 1009.78 1009.82 1009.94 1010.02 1010.06 1010.10 1010.22 1010.30 1010.38 1010.38 1010.30 1010.26 1010.26 1010.26 1010.18 1010.14 1010.18 1010.30 1010.42 1010.58 1010.66 1010.78 1010.98 1011.14 1011.18 1011.18 1011.22 1011.22 1011.10 1011.06 1011.18 1011.34 1011.30 1011.42 1011.46 1011.50 1011.78 1012.02 1012.14 1012.22 1012.70 1012.50 1012.34 1012.46 1012.74 1012.66 1012.70 1012.74 1012.86 1013.10 1013.38 1013.66 1013.90 1014.10 1014.22 1014.34 1014.42 1014.50 1014.46
1012.90 1012.46 1011.94 1011.58 1011.30 1011.14 1010.90 1010.62 1010.38 1010.18 1009.98 1009.86 1009.74 1009.66 1009.62 1009.62 1009.62 1009.62 1009.70 1009.70 1009.74 1009.78 1009.82 1009.86 1009.82 1009.82 1009.82 1009.86 1009.78 1009.78 1009.86 1009.90 1010.10 1010.30 1010.46 1010.74 1011.18 1011.26 1011.10 1011.22 1011.26 1011.30 1011.34 1011.34 1011.22 1011.18 1011.22 1011.22 1011.22 1011.46 1011.66 1011.78 1011.86 1012.14 1012.18 1012.38 1012.54 1012.62 1012.70 1012.62 1012.78 1013.14 1013.18 1013.14 1013.34 1013.66 1014.02 1014.18 1014.22 1014.22 1014.30 1014.38 1014.50 1014.50
1012.54 1012.14 1011.90 1011.74 1011.54 1011.34 1011.10 1010.86 1010.70 1010.38 1009.98 1009.78 1009.66 1009.54 1009.38 1009.30 1009.30 1009.34 1009.38 1009.42 1009.42 1009.38 1009.34 1009.34 1009.38 1009.38 1009.46 1009.54 1009.50 1009.62 1009.78 1009.86 1009.90 1009.98 1010.22 1010.58 1010.86 1011.10 1010.86 1010.94 1011.14 1011.38 1011.46 1011.46 1011.42 1011.34 1011.14 1011.06 1011.14 1011.34 1011.54 1011.82 1011.90 1012.02 1012.38 1012.46 1012.74 1012.98 1012.98 1012.94 1013.30 1013.42 1013.54 1013.50 1013.62 1013.82 1013.98 1014.14 1014.22 1014.30 1014.46 1014.50 1014.58 1014.58
1012.54 1012.30 1012.14 1011.98 1011.78 1011.58 1011.34 1011.14 1010.94 1010.74 1010.34 1010.02 1009.94 1009.86 1009.70 1009.46 1009.22 1009.02 1008.98 1008.98 1009.02 1009.02 1008.98 1008.90 1008.90 1008.94 1009.14 1009.26 1009.38 1009.54 1009.66 1009.70 1009.70 1009.74 1009.90 1010.22 1010.54 1010.78 1010.86 1010.82 1011.14 1011.18 1011.50 1011.50 1011.50 1011.54 1011.38 1011.14 1011.18 1011.18 1011.38 1011.86 1012.02 1012.10 1012.38 1012.38 1012.74 1013.10 1013.34 1013.38 1013.10 1012.86 1013.54 1013.74 1013.70 1013.78 1013.90 1014.10 1014.30 1014.50 1014.70 1014.78 1014.86 1014.86
1012.62 1012.42 1012.26 1012.10 1011.90 1011.74 1011.58 1011.34 1011.18 1010.94 1010.70 1010.50 1010.34 1010.14 1009.90 1009.70 1009.54 1009.26 1008.90 1008.70 1008.70 1008.62 1008.58 1008.58 1008.62 1008.78 1009.02 1009.18 1009.18 1009.30 1009.46 1009.46 1009.50 1009.62 1009.70 1009.82 1010.22 1010.50 1010.74 1010.94 1011.10 1011.30 1011.50 1011.54 1011.50 1011.62 1011.66 1011.46 1011.34 1011.34 1011.22 1011.38 1011.62 1012.34 1012.58 1012.66 1012.66 1013.02 1013.38 1013.70 1013.58 1013.70 1013.66 1013.62 1013.82 1014.06 1014.18 1014.26 1014.46 1014.74 1014.94 1014.94 1015.02 1015.18
1012.74 1012.54 1012.38 1012.22 1012.10 1012.02 1011.82 1011.62 1011.42 1011.22 1010.94 1010.70 1010.50 1010.34 1010.06 1009.82 1009.66 1009.46 1009.26 1008.86 1008.42 1008.34 1008.50 1008.50 1008.50 1008.62 1008.78 1008.86 1008.98 1009.14 1009.26 1009.34 1009.34 1009.46 1009.58 1009.70 1009.94 1010.30 1010.38 1010.42 1010.86 1011.14 1011.26 1011.50 1011.66 1011.78 1011.86 1011.70 1011.66 1011.66 1011.66 1011.74 1011.82 1011.94 1012.18 1012.78 1013.18 1013.18 1013.14 1013.54 1013.54 1013.62 1014.02 1014.06 1013.98 1014.18 1014.38 1014.46 1014.78 1014.98 1015.14 1015.34 1015.46 1015.46
1013.10 1012.94 1012.86 1012.78 1012.62 1012.38 1012.14 1011.86 1011.62 1011.46 1011.26 1011.06 1010.78 1010.54 1010.22 1009.90 1009.70 1009.50 1009.26 1008.82 1008.30 1008.14 1008.10 1008.14 1008.30 1008.42 1008.54 1008.66 1008.82 1008.98 1009.02 1009.22 1009.30 1009.26 1009.34 1009.66 1009.78 1010.14 1010.30 1010.50 1010.94 1011.18 1011.26 1011.50 1011.70 1011.90 1011.98 1011.94 1011.66 1011.90 1011.94 1012.14 1012.30 1012.42 1012.30 1011.90 1012.74 1013.42 1013.50 1013.58 1013.50 1013.42 1013.98 1014.30 1014.22 1014.30 1014.26 1014.42 1014.70 1014.98 1015.14 1015.34 1015.58 1015.70
1013.62 1013.50 1013.30 1013.22 1013.02 1012.70 1012.46 1012.22 1011.98 1011.86 1011.62 1011.38 1011.14 1010.78 1010.50 1010.18 1009.94 1009.66 1009.38 1008.98 1008.46 1007.90 1007.90 1008.02 1008.10 1008.18 1008.30 1008.42 1008.62 1008.70 1008.78 1009.02 1009.18 1009.30 1009.38 1009.58 1009.78 1009.86 1010.06 1010.38 1010.86 1011.18 1011.30 1011.62 1011.78 1012.06 1012.10 1012.06 1011.74 1011.94 1012.22 1012.18 1012.14 1012.38 1012.54 1012.66 1012.74 1013.38 1013.74 1013.78 1013.66 1013.62 1014.06 1014.54 1014.46 1014.54 1014.50 1014.66 1014.70 1014.74 1015.26 1015.58 1015.54 1015.70
1014.14 1014.02 1013.78 1013.58 1013.54 1013.30 1013.02 1012.78 1012.42 1012.18 1011.94 1011.66 1011.38 1011.10 1010.78 1010.46 1010.14 1009.82 1009.46 1008.98 1008.58 1007.90 1007.66 1007.74 1007.90 1007.98 1008.06 1008.22 1008.34 1008.42 1008.62 1008.86 1009.02 1009.18 1009.46 1009.62 1009.74 1009.86 1010.02 1010.18 1010.62 1011.02 1011.30 1011.46 1011.78 1012.14 1012.18 1012.06 1011.90 1011.82 1012.10 1012.54 1012.66 1012.74 1012.42 1012.86 1012.94 1013.02 1012.86 1013.18 1013.70 1013.54 1014.10 1014.78 1014.98 1015.02 1014.94 1014.94 1015.10 1014.86 1014.86 1014.82 1015.06 1015.70
1014.42 1014.46 1014.22 1013.98 1013.90 1013.70 1013.54 1013.34 1012.98 1012.58 1012.34 1012.02 1011.70 1011.42 1011.10 1010.86 1010.42 1010.06 1009.62 1009.14 1008.74 1008.26 1007.74 1007.54 1007.58 1007.70 1007.86 1007.98 1008.10 1008.26 1008.50 1008.70 1008.94 1009.14 1009.30 1009.54 1009.66 1009.86 1010.06 1010.30 1010.54 1010.90 1011.26 1011.46 1011.78 1012.10 1012.14 1012.06 1011.98 1011.94 1012.14 1012.54 1012.82 1012.78 1012.78 1013.14 1013.22 1013.30 1013.10 1012.98 1013.62 1014.02 1014.02 1014.34 1014.42 1014.38 1015.10 1015.22 1015.06 1014.98 1014.78 1015.14 1015.18 1016.06
1014.70 1014.66 1014.62 1014.42 1014.30 1014.14 1013.90 1013.78 1013.50 1013.14 1012.78 1012.38 1012.06 1011.70 1011.38 1011.14 1010.78 1010.30 1009.78 1009.34 1009.14 1008.94 1008.54 1008.18 1007.98 1007.74 1007.74 1007.90 1008.02 1008.26 1008.46 1008.62 1008.86 1009.18 1009.38 1009.54 1009.70 1009.90 1010.02 1010.26 1010.54 1010.90 1011.34 1011.86 1012.02 1012.14 1012.18 1012.10 1012.02 1011.90 1011.86 1012.10 1012.34 1012.86 1013.14 1013.42 1013.26 1013.26 1013.58 1013.42 1013.38 1014.14 1014.58 1014.38 1014.34 1014.26 1014.62 1015.46 1015.10 1015.62 1015.86 1015.34 1015.46 1016.14
1014.94 1014.90 1014.98 1014.90 1014.78 1014.70 1014.42 1014.26 1014.02 1013.74 1013.34 1012.98 1012.58 1012.18 1011.82 1011.58 1011.22 1010.78 1010.34 1009.98 1009.62 1009.38 1009.10 1008.82 1008.66 1008.46 1008.14 1008.02 1008.02 1008.22 1008.50 1008.74 1008.98 1009.18 1009.38 1009.58 1009.74 1009.90 1010.10 1010.38 1010.90 1011.42 1011.74 1012.06 1012.26 1012.30 1012.30 1012.22 1012.22 1012.26 1012.10 1011.90 1011.82 1012.10 1012.62 1012.86 1013.14 1013.42 1013.74 1013.66 1013.70 1014.18 1014.50 1014.22 1014.14 1014.78 1015.02 1014.90 1015.58 1016.10 1016.06 1016.18 1016.06 1016.02
1015.26 1015.22 1015.42 1015.42 1015.30 1015.18 1015.06 1014.90 1014.66 1014.30 1014.02 1013.74 1013.26 1012.70 1012.30 1012.10 1011.82 1011.50 1011.18 1010.82 1010.38 1009.98 1009.70 1009.50 1009.22 1008.94 1008.82 1008.66 1008.46 1008.46 1008.58 1008.70 1008.94 1009.26 1009.46 1009.66 1009.82 1009.94 1010.26 1010.62 1011.02 1011.50 1011.82 1012.06 1012.18 1012.34 1012.30 1012.30 1012.34 1012.38 1012.38 1012.50 1012.66 1012.82 1012.90 1013.14 1013.66 1014.06 1013.98 1013.90 1013.90 1013.78 1014.06 1014.58 1014.38 1014.78 1015.06 1015.78 1016.02 1015.78 1015.70 1016.10 1015.74 1015.94
1015.90 1015.82 1015.90 1015.82 1015.74 1015.70 1015.66 1015.54 1015.38 1014.98 1014.66 1014.34 1013.86 1013.22 1012.82 1012.54 1012.30 1012.06 1011.86 1011.58 1011.26 1010.78 1010.46 1010.26 1009.98 1009.78 1009.62 1009.42 1009.18 1008.94 1009.10 1009.42 1009.54 1009.66 1009.74 1009.78 1009.94 1010.18 1010.50 1010.78 1011.26 1011.42 1011.62 1012.10 1012.26 1012.42 1012.50 1012.82 1013.10 1013.14 1013.02 1013.14 1013.10 1012.98 1012.86 1012.90 1012.90 1013.42 1013.70 1014.02 1014.14 1014.14 1014.22 1014.34 1014.42 1014.70 1014.66 1015.62 1015.70 1015.54 1015.58 1015.82 1016.02 1016.26
1016.50 1016.46 1016.34 1016.18 1016.10 1016.10 1016.06 1015.94 1015.74 1015.42 1015.14 1014.94 1014.46 1013.90 1013.30 1012.94 1012.78 1012.58 1012.42 1012.14 1011.86 1011.50 1011.18 1011.02 1010.86 1010.58 1010.38 1010.14 1009.90 1009.70 1009.62 1009.82 1009.98 1010.10 1010.22 1010.22 1010.34 1010.62 1010.74 1010.74 1011.06 1011.50 1011.38 1011.78 1012.38 1012.62 1013.26 1013.42 1013.34 1013.22 1013.18 1013.10 1012.98 1012.70 1012.86 1012.94 1013.18 1013.70 1014.06 1014.22 1014.42 1014.42 1014.30 1014.34 1014.50 1014.58 1014.74 1015.02 1015.46 1015.66 1016.06 1016.70 1016.98 1016.62
1016.78 1016.74 1016.66 1016.50 1016.38 1016.34 1016.30 1016.22 1016.02 1015.78 1015.54 1015.38 1015.02 1014.50 1013.90 1013.50 1013.34 1013.26 1013.18 1012.98 1012.70 1012.34 1012.14 1011.86 1011.58 1011.30 1011.10 1010.86 1010.70 1010.46 1010.30 1010.34 1010.42 1010.58 1010.70 1010.70 1010.66 1010.70 1010.86 1010.98 1011.14 1011.42 1011.62 1012.30 1013.02 1013.38 1013.50 1013.46 1013.46 1013.34 1013.38 1013.34 1013.46 1013.38 1013.26 1013.70 1013.82 1014.06 1014.26 1014.30 1014.38 1014.74 1014.74 1014.66 1014.58 1014.58 1014.70 1014.82 1014.90 1014.98 1015.18 1015.30 1015.82 1015.46
1016.98 1016.94 1016.86 1016.74 1016.66 1016.54 1016.46 1016.38 1016.26 1016.06 1015.86 1015.70 1015.42 1015.06 1014.54 1014.14 1014.06 1014.10 1014.06 1013.86 1013.62 1013.34 1013.06 1012.66 1012.30 1011.90 1011.66 1011.46 1011.18 1011.06 1011.10 1011.06 1010.98 1010.94 1011.06 1011.14 1011.14 1011.18 1011.30 1011.62 1011.86 1012.30 1012.78 1013.10 1013.38 1013.62 1013.78 1013.78 1013.90 1013.78 1013.54 1013.66 1013.94 1013.82 1013.86 1014.18 1014.34 1014.42 1014.46 1014.70 1014.82 1014.66 1014.62 1014.94 1014.90 1014.82 1014.86 1014.98 1015.02 1015.10 1015.18 1015.26 1015.26 1015.22
1017.10 1017.06 1016.98 1016.90 1016.82 1016.70 1016.58 1016.50 1016.42 1016.26 1016.10 1015.94 1015.70 1015.50 1015.18 1014.86 1014.74 1014.70 1014.66 1014.50 1014.34 1014.06 1013.70 1013.46 1013.06 1012.74 1012.34 1012.10 1011.78 1011.54 1011.66 1011.58 1011.50 1011.62 1011.62 1011.62 1011.66 1011.70 1011.86 1012.06 1012.50 1012.86 1013.22 1013.46 1013.50 1013.82 1014.02 1014.06 1014.14 1014.18 1014.22 1014.38 1014.38 1014.30 1014.46 1014.46 1014.54 1014.74 1014.86 1014.82 1014.66 1014.86 1015.10 1015.06 1014.74 1014.78 1015.06 1015.10 1015.14 1015.10 1015.10 1015.10 1015.10 1015.14
Thickness
5118 5122 5128 5135 5144 5152 5156 5161 5167 5173 5179 5185 5191 5196 5201 5207 5216 5224 5233 5247 5264 5274 5278 5286 5298 5305 5311 5318 5322 5326 5332 5340 5346 5353 5361 5369 5377 5384 5391 5397 5403 5409 5414 5418 5423 5426 5430 5435 5440 5444 5450 5456 5463 5469 5473 5477 5480 5483 5487 5491 5495 5497 5498 5500 5504 5505 5503 5502 5503 5504 5506 5507 5508 5510
5107 5112 5118 5124 5133 5139 5143 5149 5156 5161 5167 5174 5181 5187 5193 5197 5203 5210 5218 5233 5253 5262 5266 5276 5286 5292 5298 5304 5311 5315 5322 5330 5336 5342 5350 5357 5365 5372 5379 5386 5393 5399 5405 5410 5415 5420 5424 5427 5431 5436 5441 5447 5453 5460 5466 5470 5473 5477 5480 5485 5489 5492 5494 5496 5498 5501 5501 5501 5500 5497 5497 5501 5504 5505
5099 5103 5108 5113 5121 5127 5131 5137 5144 5150 5156 5162 5170 5177 5183 5187 5193 5200 5206 5220 5241 5251 5255 5265 5275 5279 5284 5290 5298 5305 5312 5320 5325 5331 5338 5345 5353 5360 5367 5375 5383 5390 5396 5402 5407 5411 5416 5420 5423 5428 5434 5439 5444 5451 5457 5463 5467 5471 5474 5479 5484 5486 5489 5492 5494 5497 5498 5499 5499 5495 5494 5496 5498 5500
5093 5097 5100 5104 5109 5115 5120 5126 5132 5138 5144 5151 5158 5164 5170 5176 5183 5190 5193 5205 5230 5242 5242 5251 5262 5267 5272 5278 5284 5292 5302 5310 5315 5320 5326 5333 5341 5348 5357 5366 5373 5379 5386 5392 5397 5402 5407 5412 5416 5421 5425 5430 5436 5442 5448 5454 5459 5464 5468 5473 5477 5480 5484 5488 5490 5493 5494 5495 5496 5494 5493 5492 5493 5495
5089 5092 5095 5097 5101 5104 5110 5116 5121 5126 5133 5140 5146 5153 5159 5166 5173 5181 5184 5195 5218 5232 5231 5238 5252 5257 5261 5267 5274 5280 5289 5298 5304 5309 5316 5322 5329 5337 5346 5356 5363 5370 5377 5382 5388 5392 5397 5403 5409 5414 5418 5423 5428 5434 5439 5445 5451 5457 5462 5466 5470 5474 5478 5482 5486 5488 5490 5491 5492 5493 5493 5491 5490 5491
5087 5089 5091 5093 5095 5098 5102 5107 5111 5116 5123 5128 5135 5141 5147 5155 5163 5170 5176 5185 5203 5218 5221 5229 5243 5250 5251 5257 5265 5270 5276 5285 5291 5296 5304 5311 5319 5328 5337 5345 5354 5361 5367 5373 5378 5383 5388 5394 5400 5406 5411 5416 5420 5426 5432 5437 5443 5448 5453 5459 5463 5467 5472 5476 5480 5484 5487 5487 5486 5489 5492 5492 5490 5488
5088 5089 5090 5091 5092 5095 5098 5101 5104 5109 5114 5118 5125 5132 5136 5143 5152 5159 5166 5173 5186 5201 5211 5220 5233 5241 5243 5246 5255 5261 5265 5272 5279 5282 5291 5300 5308 5318 5327 5335 5343 5350 5356 5363 5369 5375 5379 5384 5390 5397 5403 5409 5414 5418 5424 5430 5436 5440 5444 5450 5456 5460 5465 5469 5474 5479 5482 5484 5483 5484 5487 5489 5488 5487
5091 5091 5092 5093 5093 5094 5096 5098 5101 5104 5108 5112 5117 5123 5127 5133 5142 5148 5153 5160 5171 5184 5197 5210 5220 5227 5229 5234 5243 5251 5254 5262 5269 5273 5280 5288 5297 5307 5317 5324 5332 5340 5346 5353 5360 5366 5371 5376 5381 5387 5394 5400 5407 5411 5416 5422 5428 5433 5437 5442 5448 5453 5458 5462 5467 5472 5476 5480 5480 5480 5482 5484 5486 5486
5095 5095 5096 5096 5096 5096 5097 5098 5099 5101 5104 5107 5111 5116 5120 5125 5132 5137 5141 5149 5159 5169 5182 5198 5208 5211 5215 5221 5232 5241 5244 5250 5259 5264 5270 5278 5286 5296 5306 5314 5323 5330 5337 5343 5350 5356 5362 5367 5373 5378 5384 5391 5398 5404 5409 5413 5419 5425 5430 5435 5439 5445 5450 5455 5459 5464 5469 5474 5476 5476 5477 5480 5481 5482
5098 5099 5099 5098 5099 5098 5098 5099 5099 5100 5102 5104 5107 5110 5114 5119 5123 5128 5133 5140 5147 5156 5169 5185 5194 5198 5202 5209 5220 5230 5234 5237 5246 5253 5260 5269 5277 5285 5295 5304 5313 5322 5328 5333 5340 5346 5351 5358 5364 5370 5375 5381 5388 5394 5401 5406 5411 5417 5423 5428 5432 5437 5442 5448 5452 5457 5462 5467 5471 5471 5473 5476 5477 5477
5099 5100 5100 5100 5100 5100 5100 5100 5100 5101 5102 5103 5105 5108 5110 5114 5118 5122 5127 5132 5139 5148 5159 5171 5180 5186 5191 5197 5207 5220 5224 5225 5231 5239 5248 5259 5271 5279 5287 5296 5305 5311 5316 5321 5327 5334 5339 5346 5353 5360 5366 5372 5378 5385 5392 5398 5403 5408 5415 5421 5426 5431 5435 5440 5445 5449 5454 5459 5463 5466 5468 5470 5472 5472
5102 5102 5102 5102 5103 5102 5102 5102 5103 5103 5104 5104 5106 5108 5110 5112 5115 5118 5123 5127 5133 5141 5150 5161 5170 5175 5181 5188 5197 5208 5212 5213 5221 5232 5240 5251 5265 5273 5278 5287 5293 5298 5301 5307 5314 5321 5328 5335 5342 5349 5356 5363 5369 5376 5382 5389 5395 5400 5406 5412 5419 5425 5429 5434 5438 5442 5445 5450 5455 5459 5461 5463 5465 5466
5105 5105 5106 5106 5106 5106 5106 5106 5107 5107 5108 5108 5109 5111 5112 5113 5115 5118 5122 5126 5132 5138 5145 5154 5161 5166 5172 5181 5188 5195 5199 5202 5214 5226 5230 5237 5250 5260 5264 5271 5279 5283 5288 5294 5300 5308 5316 5323 5331 5337 5345 5353 5361 5367 5373 5380 5387 5393 5398 5404 5410 5417 5422 5427 5431 5435 5438 5441 5446 5451 5454 5456 5459 5460
5109 5109 5110 5110 5110 5110 5110 5110 5111 5112 5113 5113 5114 5116 5117 5118 5119 5121 5124 5128 5133 5137 5143 5150 5155 5160 5168 5175 5179 5184 5190 5196 5204 5213 5215 5222 5235 5243 5246 5255 5266 5273 5278 5282 5289 5297 5305 5310 5317 5324 5333 5343 5351 5356 5363 5371 5378 5385 5390 5396 5402 5408 5413 5418 5423 5427 5431 5433 5438 5442 5446 5449 5451 5453
5113 5113 5114 5114 5114 5114 5114 5115 5115 5117 5119 5120 5121 5123 5124 5125 5126 5127 5129 5132 5135 5138 5143 5148 5152 5158 5165 5169 5172 5178 5184 5189 5195 5202 5206 5211 5220 5225 5228 5241 5255 5263 5268 5271 5276 5285 5292 5295 5302 5312 5322 5332 5340 5347 5356 5363 5369 5375 5381 5386 5392 5399 5404 5408 5413 5419 5423 5426 5430 5433 5438 5441 5443 5445
5118 5118 5118 5118 5119 5120 5120 5120 5120 5122 5124 5125 5127 5129 5130 5132 5133 5134 5135 5136 5138 5140 5144 5148 5152 5156 5161 5164 5168 5173 5177 5182 5188 5194 5198 5201 5207 5212 5218 5230 5243 5252 5255 5256 5259 5270 5279 5282 5288 5299 5311 5321 5330 5337 5347 5354 5359 5364 5370 5375 5382 5390 5396 5400 5405 5410 5415 5418 5422 5426 5429 5433 5436 5437
5123 5123 5123 5123 5125 5125 5125 5125 5126 5127 5129 5131 5133 5134 5136 5137 5139 5140 5141 5142 5143 5144 5145 5148 5152 5156 5158 5161 5166 5170 5172 5175 5181 5185 5189 5194 5198 5203 5211 5221 5230 5235 5237 5238 5243 5255 5267 5271 5275 5287 5301 5310 5318 5325 5335 5343 5348 5354 5359 5365 5373 5381 5388 5392 5396 5401 5405 5409 5413 5416 5420 5425 5428 5430
5129 5129 5128 5129 5131 5131 5131 5131 5131 5132 5133 5135 5137 5139 5140 5143 5145 5147 5147 5147 5147 5147 5149 5151 5154 5156 5157 5160 5165 5168 5169 5173 5177 5180 5185 5189 5191 5197 5204 5210 5215 5219 5223 5226 5231 5242 5256 5260 5263 5276 5290 5298 5304 5312 5322 5330 5337 5343 5348 5354 5362 5369 5376 5383 5388 5392 5396 5399 5403 5407 5411 5415 5418 5422
5135 5134 5134 5135 5136 5136 5136 5136 5136 5136 5137 5138 5140 5142 5145 5148 5150 5151 5151 5150 5150 5151 5152 5154 5156 5157 5158 5160 5163 5167 5169 5171 5176 5178 5182 5185 5187 5191 5196 5200 5204 5209 5213 5217 5219 5229 5243 5248 5251 5263 5277 5283 5289 5299 5308 5316 5324 5332 5337 5343 5351 5358 5365 5372 5377 5381 5385 5389 5393 5396 5399 5404 5408 5411
5140 5140 5139 5139 5139 5139 5140 5141 5140 5140 5141 5142 5143 5146 5148 5151 5153 5153 5154 5154 5154 5154 5155 5157 5158 5158 5159 5161 5162 5165 5167 5171 5175 5177 5178 5181 5184 5187 5190 5194 5199 5202 5206 5209 5212 5218 5230 5235 5239 5250 5261 5267 5274 5284 5292 5301 5311 5319 5325 5332 5339 5346 5353 5360 5366 5369 5373 5377 5381 5385 5388 5393 5397 5400
5145 5144 5144 5143 5144 5144 5145 5146 5146 5145 5146 5146 5147 5149 5151 5152 5154 5154 5155 5156 5156 5157 5158 5159 5160 5160 5161 5162 5164 5166 5168 5170 5173 5174 5176 5179 5182 5185 5187 5190 5195 5199 5202 5204 5205 5209 5218 5224 5228 5237 5245 5252 5261 5270 5278 5287 5296 5305 5312 5319 5326 5333 5341 5348 5353 5357 5361 5365 5369 5373 5377 5381 5385 5388
5148 5148 5148 5148 5147 5147 5148 5150 5151 5151 5150 5149 5150 5152 5153 5153 5154 5155 5155 5156 5156 5158 5159 5160 5161 5162 5163 5164 5165 5167 5169 5171 5173 5174 5177 5180 5182 5183 5186 5189 5193 5197 5199 5200 5200 5203 5211 5216 5219 5225 5233 5240 5248 5257 5265 5273 5281 5290 5297 5304 5312 5320 5327 5335 5340 5345 5349 5354 5358 5363 5366 5369 5372 5375
5152 5151 5151 5151 5151 5151 5152 5153 5155 5154 5154 5153 5154 5156 5155 5155 5156 5156 5156 5156 5156 5157 5158 5159 5160 5162 5163 5164 5165 5167 5168 5171 5173 5174 5177 5179 5180 5182 5184 5187 5191 5194 5196 5199 5199 5200 5206 5210 5212 5217 5222 5228 5237 5246 5253 5260 5268 5276 5283 5290 5297 5305 5312 5320 5326 5331 5336 5341 5346 5350 5355 5358 5361 5363
5155 5155 5155 5155 5155 5155 5156 5157 5158 5158 5159 5158 5158 5158 5158 5157 5158 5159 5158 5157 5157 5157 5157 5158 5159 5160 5162 5162 5164 5166 5167 5169 5171 5173 5175 5177 5180 5181 5182 5185 5188 5192 5195 5199 5199 5200 5203 5206 5207 5211 5214 5220 5228 5235 5241 5248 5256 5264 5271 5277 5284 5290 5298 5304 5311 5316 5322 5328 5332 5337 5342 5347 5349 5351
5156 5156 5156 5156 5157 5157 5159 5160 5161 5162 5163 5162 5162 5161 5160 5161 5161 5161 5160 5158 5158 5158 5158 5158 5159 5160 5160 5161 5162 5163 5165 5167 5169 5172 5173 5175 5178 5180 5181 5183 5186 5189 5194 5198 5199 5200 5202 5203 5205 5207 5208 5212 5219 5225 5231 5237 5244 5251 5259 5266 5271 5278 5284 5291 5298 5303 5308 5314 5319 5324 5329 5334 5337 5340
5155 5156 5157 5158 5158 5159 5160 5161 5162 5164 5165 5165 5164 5163 5163 5163 5163 5162 5161 5159 5158 5159 5159 5159 5159 5159 5160 5161 5161 5163 5164 5166 5168 5170 5172 5174 5176 5179 5181 5183 5185 5188 5192 5196 5198 5199 5201 5203 5204 5206 5206 5208 5212 5216 5222 5228 5233 5240 5248 5254 5260 5266 5273 5280 5285 5289 5293 5299 5305 5310 5315 5320 5325 5330
5155 5156 5158 5159 5160 5161 5162 5163 5163 5165 5165 5165 5165 5164 5164 5164 5163 5162 5161 5160 5158 5158 5158 5158 5159 5160 5160 5161 5162 5163 5165 5166 5168 5170 5171 5173 5175 5176 5178 5181 5183 5186 5189 5192 5195 5198 5200 5202 5204 5206 5207 5207 5207 5210 5214 5219 5225 5231 5237 5242 5248 5255 5261 5267 5272 5276 5281 5286 5290 5295 5301 5306 5312 5318
5156 5158 5159 5161 5162 5163 5164 5164 5165 5165 5165 5165 5165 5165 5164 5163 5162 5161 5160 5159 5159 5158 5158 5158 5159 5160 5161 5162 5163 5165 5166 5167 5167 5168 5169 5171 5172 5172 5174 5177 5180 5182 5185 5188 5192 5194 5197 5199 5202 5205 5206 5206 5207 5208 5210 5213 5218 5224 5228 5232 5238 5243 5250 5256 5261 5265 5270 5272 5275 5281 5288 5294 5299 5306
5157 5160 5161 5163 5163 5164 5164 5164 5165 5165 5166 5165 5164 5164 5163 5162 5161 5160 5159 5158 5157 5157 5157 5158 5158 5159 5161 5162 5163 5164 5165 5165 5165 5166 5167 5167 5166 5167 5170 5173 5175 5177 5180 5184 5187 5190 5194 5197 5199 5202 5203 5204 5206 5207 5208 5210 5213 5217 5221 5225 5229 5233 5238 5244 5249 5253 5256 5259 5264 5270 5277 5283 5288 5295
5159 5161 5161 5162 5162 5162 5162 5162 5162 5163 5164 5164 5163 5162 5162 5161 5160 5158 5157 5155 5154 5154 5156 5156 5157 5159 5160 5160 5161 5162 5162 5163 5164 5165 5165 5165 5163 5165 5168 5170 5170 5172 5174 5178 5182 5186 5190 5194 5197 5199 5201 5201 5202 5204 5206 5208 5210 5211 5215 5220 5223 5226 5230 5235 5239 5243 5247 5251 5256 5261 5266 5272 5278 5283
5158 5158 5159 5159 5159 5159 5159 5160 5159 5160 5160 5161 5159 5159 5158 5158 5157 5156 5154 5152 5151 5150 5152 5153 5155 5156 5157 5158 5160 5160 5161 5162 5164 5165 5165 5164 5163 5163 5165 5166 5167 5168 5170 5173 5178 5182 5186 5190 5193 5196 5198 5199 5199 5201 5203 5206 5208 5208 5209 5213 5218 5222 5225 5228 5232 5235 5239 5244 5248 5252 5255 5261 5267 5272
5156 5156 5157 5157 5157 5157 5157 5157 5157 5156 5157 5156 5155 5154 5154 5153 5152 5150 5149 5148 5147 5147 5148 5150 5151 5152 5154 5156 5158 5159 5160 5161 5163 5164 5165 5165 5163 5162 5163 5164 5164 5164 5166 5169 5173 5177 5181 5185 5189 5192 5195 5198 5198 5198 5199 5201 5203 5205 5206 5207 5211 5215 5218 5221 5225 5228 5231 5236 5238 5241 5245 5250 5255 5260
5153 5154 5154 5153 5153 5154 5153 5153 5153 5153 5153 5153 5152 5151 5151 5150 5148 5146 5144 5143 5144 5145 5145 5147 5148 5150 5151 5154 5156 5158 5159 5161 5162 5163 5163 5164 5163 5162 5162 5163 5162 5162 5163 5165 5168 5171 5175 5180 5184 5187 5190 5193 5194 5195 5198 5199 5199 5201 5203 5204 5207 5210 5211 5214 5218 5221 5224 5228 5230 5231 5236 5241 5245 5250
5149 5149 5149 5149 5149 5149 5150 5150 5150 5149 5150 5149 5149 5148 5148 5147 5146 5143 5141 5141 5143 5145 5145 5146 5147 5148 5150 5153 5155 5157 5159 5160 5161 5162 5162 5163 5162 5161 5161 5161 5160 5159 5161 5161 5163 5167 5170 5174 5179 5181 5184 5186 5189 5191 5195 5197 5197 5196 5198 5201 5204 5207 5207 5208 5212 5215 5217 5220 5223 5225 5228 5232 5236 5240
5145 5144 5144 5144 5144 5144 5145 5146 5146 5145 5145 5145 5145 5145 5145 5144 5143 5142 5140 5140 5143 5145 5146 5146 5146 5148 5149 5152 5154 5157 5159 5160 5160 5161 5161 5161 5161 5161 5161 5161 5158 5158 5159 5159 5160 5162 5165 5169 5173 5176 5178 5180 5183 5186 5189 5192 5193 5193 5195 5197 5199 5201 5202 5201 5204 5208 5210 5213 5216 5219 5222 5225 5228 5230
5140 5139 5140 5139 5139 5139 5140 5140 5140 5141 5142 5142 5143 5143 5142 5142 5141 5140 5139 5139 5142 5145 5147 5147 5147 5148 5151 5153 5155 5158 5159 5159 5160 5160 5160 5160 5160 5160 5161 5160 5159 5157 5157 5158 5158 5159 5161 5164 5168 5172 5172 5174 5177 5180 5184 5186 5188 5191 5193 5194 5194 5196 5197 5197 5198 5201 5204 5205 5210 5214 5217 5219 5220 5221
5135 5135 5135 5135 5134 5134 5134 5135 5135 5137 5138 5139 5140 5140 5139 5139 5139 5139 5139 5139 5141 5143 5145 5147 5149 5150 5152 5154 5156 5158 5159 5160 5160 5160 5160 5159 5159 5159 5159 5159 5158 5157 5157 5157 5157 5157 5158 5161 5165 5168 5169 5170 5171 5175 5177 5179 5181 5184 5187 5189 5189 5190 5191 5193 5196 5198 5198 5200 5204 5207 5210 5212 5213 5213
5131 5130 5130 5130 5130 5129 5130 5130 5131 5132 5134 5135 5136 5137 5137 5137 5137 5138 5139 5139 5139 5140 5142 5144 5147 5150 5152 5154 5157 5157 5158 5159 5160 5159 5159 5159 5159 5159 5159 5158 5158 5157 5155 5154 5154 5155 5157 5159 5162 5165 5167 5169 5170 5171 5171 5173 5175 5177 5180 5183 5184 5183 5184 5188 5191 5193 5193 5195 5198 5199 5202 5205 5207 5208
5128 5127 5126 5125 5124 5124 5124 5125 5126 5128 5129 5130 5132 5133 5134 5134 5135 5136 5137 5137 5137 5138 5139 5141 5143 5147 5150 5153 5156 5157 5158 5158 5159 5159 5158 5158 5158 5158 5158 5157 5155 5154 5153 5152 5153 5153 5155 5157 5159 5162 5164 5168 5169 5170 5169 5169 5170 5171 5172 5176 5178 5178 5179 5182 5185 5186 5187 5189 5191 5192 5195 5199 5201 5203
5123 5122 5120 5120 5119 5119 5119 5119 5120 5122 5123 5125 5127 5129 5130 5131 5131 5132 5132 5133 5134 5135 5136 5138 5140 5143 5146 5149 5153 5155 5156 5157 5157 5157 5157 5157 5157 5157 5157 5155 5154 5153 5152 5151 5152 5153 5155 5156 5157 5158 5160 5162 5163 5165 5166 5166 5166 5165 5166 5169 5172 5173 5175 5177 5178 5180 5180 5181 5183 5187 5191 5193 5195 5197
5116 5116 5115 5115 5115 5114 5114 5113 5114 5116 5118 5119 5122 5125 5127 5128 5128 5128 5129 5129 5130 5132 5134 5135 5136 5139 5142 5144 5148 5151 5152 5152 5152 5153 5154 5155 5155 5155 5154 5154 5152 5152 5152 5151 5151 5151 5152 5152 5153 5155 5156 5158 5159 5161 5163 5164 5164 5164 5163 5165 5166 5168 5171 5172 5174 5176 5177 5176 5177 5181 5183 5183 5185 5189
5110 5110 5110 5110 5111 5110 5109 5110 5110 5111 5113 5114 5117 5120 5123 5124 5124 5125 5125 5126 5127 5129 5130 5131 5132 5134 5137 5139 5142 5145 5147 5148 5148 5148 5149 5151 5152 5151 5152 5152 5152 5152 5152 5151 5149 5149 5148 5149 5150 5152 5154 5155 5157 5160 5161 5162 5161 5161 5161 5161 5163 5165 5167 5169 5171 5172 5174 5174 5174 5176 5177 5176 5177 5181
5105 5105 5105 5106 5106 5106 5106 5106 5107 5108 5109 5110 5112 5115 5118 5121 5121 5120 5121 5122 5123 5124 5126 5127 5128 5130 5132 5134 5136 5139 5141 5143 5144 5144 5145 5146 5148 5149 5149 5149 5149 5149 5149 5147 5145 5144 5144 5146 5147 5149 5151 5152 5153 5155 5156 5156 5156 5156 5157 5158 5159 5161 5162 5165 5167 5169 5170 5171 5173 5174 5175 5175 5176 5179
5100 5100 5101 5101 5102 5102 5102 5102 5103 5104 5105 5106 5108 5110 5113 5115 5116 5115 5115 5116 5117 5119 5120 5122 5124 5127 5129 5130 5133 5135 5136 5137 5139 5140 5140 5141 5143 5144 5145 5144 5144 5142 5141 5140 5139 5140 5140 5141 5143 5145 5147 5147 5148 5149 5151 5150 5150 5151 5152 5153 5155 5157 5158 5161 5163 5165 5166 5167 5168 5169 5171 5172 5175 5177
5096 5096 5097 5097 5098 5099 5099 5100 5100 5101 5102 5103 5105 5107 5109 5110 5111 5111 5111 5112 5113 5114 5116 5118 5120 5122 5125 5127 5129 5131 5132 5132 5134 5135 5136 5137 5138 5139 5139 5139 5138 5137 5135 5136 5136 5136 5136 5137 5138 5140 5141 5141 5141 5143 5144 5145 5145 5146 5147 5149 5151 5153 5154 5156 5159 5161 5162 5163 5164 5166 5168 5169 5171 5173